Weather History for KMWH - July, 2013

Change the Weather History Date:

Tuesday, July 23, 2013

  Actual Average Record
Temperature  
Mean Temperature 80 °F 74 °F  
Max Temperature 98 °F 91 °F 107 °F (2006)
Min Temperature 61 °F 57 °F 44 °F (2011)
Degree Days  
Heating Degree Days 0 0  
Month to date heating degree days 0 6  
Since 1 June heating degree days 49 61  
Since 1 July heating degree days 0 6  
Cooling Degree Days 15 9  
Month to date cooling degree days 283 170  
Year to date cooling degree days 441 280  
Since 1 June cooling degree days 391 255  
Growing Degree Days 30 (Base 50)    
Moisture  
Dew Point 46 °F    
Average Humidity 39    
Maximum Humidity 67    
Minimum Humidity 11    
Precipitation  
Precipitation 0.00 in 0.02 in 0.01 in (2014)
Month to date precipitation T 0.31  
Year to date precipitation 3.75 5.08  
Sea Level Pressure  
Sea Level Pressure 29.89 in    
Wind  
Wind Speed 3 mph (SSW)    
Max Wind Speed 10 mph    
Max Gust Speed 16 mph    
Visibility 10 miles    
Events      
T = Trace of Precipitation, MM = Missing Value Source: NWS Daily Summary

Daily Weather History Graph

Daily Weather History Graph

Search for Another Location

Airport or City:

Trip Planner

Search our weather history database for the weather conditions in past years. The results will help you decide how hot, cold, wet, or windy it might be!

Date:

Astronomy

Jul. 23, 2013 Rise Set
Actual Time 5:25 AM PDT 8:41 PM PDT
Civil Twilight 4:48 AM PDT 9:18 PM PDT
Nautical Twilight 4:00 AM PDT 10:06 PM PDT
Astronomical Twilight 2:58 AM PDT 11:06 PM PDT
Moon 9:00 PM PDT (7/23) 6:49 AM PDT (7/23)
Length of Visible Light 16h 29m
Length of Day
15h 15m
Full, 98% of the Moon is Illuminated
Jul 23
Full
Jul 29
Last Quarter
Aug 6
New
Aug 14
First Quarter
Aug 20
Full

Hourly Weather History & Observations

Time (PDT) Temp. Dew Point Humidity Pressure Visibility Wind Dir Wind Speed Gust Speed Precip Events Conditions
12:52 AM 73.0 °F 45.0 °F 37% 29.86 in 10.0 mi NW 6.9 mph - N/A   Clear
1:52 AM 73.0 °F 53.1 °F 49% 29.87 in 10.0 mi SSW 4.6 mph - N/A   Clear
2:52 AM 68.0 °F 53.1 °F 59% 29.88 in 10.0 mi Calm Calm - N/A   Clear
3:52 AM 64.9 °F 52.0 °F 63% 29.89 in 10.0 mi SSE 3.5 mph - N/A   Clear
4:52 AM 63.0 °F 52.0 °F 67% 29.91 in 10.0 mi Calm Calm - N/A   Clear
5:52 AM 63.0 °F 52.0 °F 67% 29.92 in 10.0 mi Calm Calm - N/A   Clear
6:52 AM 64.0 °F 53.1 °F 67% 29.94 in 10.0 mi Calm Calm - N/A   Clear
7:52 AM 70.0 °F 55.0 °F 59% 29.95 in 10.0 mi SSE 4.6 mph - N/A   Clear
8:52 AM 77.0 °F 53.1 °F 43% 29.96 in 10.0 mi Calm Calm - N/A   Clear
9:52 AM 81.0 °F 48.9 °F 33% 29.96 in 10.0 mi Calm Calm - N/A   Clear
10:52 AM 87.1 °F 48.9 °F 27% 29.96 in 10.0 mi South 4.6 mph - N/A   Clear
11:52 AM 90.0 °F 46.9 °F 23% 29.94 in 10.0 mi South 5.8 mph - N/A   Clear
12:52 PM 91.9 °F 44.1 °F 19% 29.92 in 10.0 mi South 5.8 mph - N/A   Clear
1:52 PM 93.0 °F 42.1 °F 17% 29.91 in 10.0 mi SW 4.6 mph - N/A   Clear
2:52 PM 97.0 °F 45.0 °F 17% 29.90 in 10.0 mi SSW 9.2 mph 16.1 mph N/A   Clear
3:52 PM 97.0 °F 43.0 °F 16% 29.88 in 10.0 mi SW 8.1 mph - N/A   Clear
4:52 PM 97.0 °F 41.0 °F 14% 29.86 in 10.0 mi South 4.6 mph - N/A   Clear
5:52 PM 97.0 °F 36.0 °F 12% 29.84 in 10.0 mi SSW 5.8 mph - N/A   Clear
6:52 PM 96.1 °F 32.0 °F 10% 29.83 in 10.0 mi Calm Calm - N/A   Clear
7:52 PM 93.9 °F 35.1 °F 13% 29.83 in 10.0 mi South 3.5 mph - N/A   Clear
8:52 PM 91.0 °F 39.9 °F 17% 29.83 in 10.0 mi South 5.8 mph - N/A   Clear
9:52 PM 80.1 °F 48.9 °F 34% 29.85 in 10.0 mi Calm Calm - N/A   Clear
10:52 PM 84.0 °F 46.9 °F 27% 29.85 in 10.0 mi SSW 5.8 mph - N/A   Clear
11:52 PM 70.0 °F 48.9 °F 47% 29.86 in 10.0 mi NNE 5.8 mph - N/A   Clear